Weather History for Mankato, MN

Change the Weather History Date:

Thursday, November 8, 2012

  Actual Average Record
Temperature  
Mean Temperature 45 °F -  
Max Temperature 55 °F 43 °F 82 °F (2006)
Min Temperature 35 °F 28 °F 8 °F (2003)
Degree Days  
Heating Degree Days 20    
Moisture  
Dew Point 34 °F    
Average Humidity 68    
Maximum Humidity 81    
Minimum Humidity 51    
Precipitation  
Precipitation 0.00 in - - ()
Sea Level Pressure  
Sea Level Pressure 29.96 in    
Wind  
Wind Speed 12 mph (SSE)    
Max Wind Speed 20 mph    
Max Gust Speed 26 mph    
Visibility 10 miles    
Events      
Averages and records for this station are not official NWS values.
T = Trace of Precipitation, MM = Missing Value Source: NWS Daily Summary

Daily Weather History Graph

Daily Weather History Graph

Search for Another Location

Airport:

Trip Planner

Search our weather history database for the weather conditions in past years. The results will help you decide how hot, cold, wet, or windy it might be!

Date:

Astronomy

Nov. 08, 2012 Rise Set
Actual Time 7:02 AM CST 4:55 PM CST
Civil Twilight 6:31 AM CST 5:26 PM CST
Nautical Twilight 5:57 AM CST 6:01 PM CST
Astronomical Twilight 5:23 AM CST 6:35 PM CST
Moon 12:46 AM CST (11/8) 1:48 PM CST (11/8)
Length of Visible Light 10h 54m
Length of Day
9h 53m
Waning Crescent, 32% of the Moon is Illuminated
Nov 8
Waning Crescent
Nov 13
New
Nov 20
First Quarter
Nov 28
Full
Dec 6
Last Quarter

Hourly Weather History & Observations

Time (CST) Temp. Windchill Dew Point Humidity Pressure Visibility Wind Dir Wind Speed Gust Speed Precip Events Conditions
12:15 AM 35.6 °F 28.6 °F 28.4 °F 75% 30.05 in 10.0 mi South 9.2 mph - N/A   Clear
12:35 AM 35.6 °F 27.5 °F 28.4 °F 75% 30.04 in 10.0 mi South 11.5 mph - N/A   Clear
12:55 AM 35.6 °F 27.5 °F 28.4 °F 75% 30.04 in 10.0 mi SSE 11.5 mph - N/A   Clear
1:15 AM 35.6 °F 27.1 °F 28.4 °F 75% 30.03 in 10.0 mi South 12.7 mph - N/A   Clear
1:35 AM 35.6 °F 28.0 °F 28.4 °F 75% 30.02 in 10.0 mi SSE 10.4 mph - N/A   Clear
1:55 AM 35.6 °F 27.1 °F 30.2 °F 81% 30.02 in 10.0 mi SSE 12.7 mph - N/A   Clear
2:15 AM 35.6 °F 26.6 °F 28.4 °F 75% 30.01 in 10.0 mi SSE 13.8 mph - N/A   Clear
2:35 AM 35.6 °F 27.5 °F 28.4 °F 75% 30.01 in 10.0 mi SSE 11.5 mph - N/A   Clear
2:55 AM 35.6 °F 27.5 °F 28.4 °F 75% 30.01 in 10.0 mi SSE 11.5 mph - N/A   Clear
3:15 AM 35.6 °F 26.6 °F 28.4 °F 75% 30.00 in 10.0 mi South 13.8 mph - N/A   Clear
3:35 AM 35.6 °F 26.6 °F 28.4 °F 75% 29.99 in 10.0 mi South 13.8 mph - N/A   Clear
3:55 AM 35.6 °F 26.2 °F 28.4 °F 75% 29.98 in 10.0 mi SSE 15.0 mph 20.7 mph N/A   Clear
4:15 AM 35.6 °F 27.1 °F 30.2 °F 81% 29.97 in 10.0 mi SSE 12.7 mph - N/A   Clear
4:35 AM 35.6 °F 26.2 °F 28.4 °F 75% 29.96 in 10.0 mi South 15.0 mph - N/A   Clear
4:55 AM 35.6 °F 26.6 °F 30.2 °F 81% 29.96 in 10.0 mi South 13.8 mph 18.4 mph N/A   Clear
5:15 AM 35.6 °F 27.1 °F 30.2 °F 81% 29.96 in 10.0 mi South 12.7 mph 20.7 mph N/A   Clear
5:35 AM 35.6 °F 27.1 °F 30.2 °F 81% 29.96 in 10.0 mi South 12.7 mph 19.6 mph N/A   Clear
5:55 AM 35.6 °F 26.2 °F 30.2 °F 81% 29.95 in 10.0 mi South 15.0 mph 19.6 mph N/A   Clear
6:15 AM 37.4 °F 28.5 °F 30.2 °F 75% 29.94 in 10.0 mi South 15.0 mph - N/A   Clear
6:55 AM 37.4 °F 28.5 °F 30.2 °F 75% 29.94 in 10.0 mi South 15.0 mph 19.6 mph N/A   Clear
7:15 AM 37.4 °F 28.9 °F 30.2 °F 75% 29.95 in 10.0 mi South 13.8 mph 20.7 mph N/A   Clear
7:35 AM 37.4 °F 28.9 °F 30.2 °F 75% 29.95 in 10.0 mi South 13.8 mph - N/A   Clear
7:55 AM 37.4 °F 28.9 °F 30.2 °F 75% 29.95 in 10.0 mi South 13.8 mph 18.4 mph N/A   Clear
8:15 AM 39.2 °F 30.8 °F 30.2 °F 70% 29.94 in 10.0 mi South 15.0 mph 21.9 mph N/A   Clear
8:35 AM 39.2 °F 32.0 °F 32.0 °F 75% 29.96 in 10.0 mi South 11.5 mph 20.7 mph N/A   Clear
8:55 AM 41.0 °F 33.1 °F 32.0 °F 70% 29.95 in 10.0 mi South 15.0 mph 23.0 mph N/A   Clear
9:15 AM 42.8 °F 35.1 °F 33.8 °F 70% 29.94 in 10.0 mi South 16.1 mph 24.2 mph N/A   Clear
9:35 AM 42.8 °F 34.5 °F 33.8 °F 70% 29.95 in 10.0 mi South 18.4 mph 21.9 mph N/A   Clear
9:55 AM 44.6 °F 36.9 °F 33.8 °F 66% 29.95 in 10.0 mi South 18.4 mph 26.5 mph N/A   Clear
10:15 AM 44.6 °F 37.8 °F 35.6 °F 71% 29.95 in 10.0 mi South 15.0 mph 21.9 mph N/A   Clear
10:35 AM 48.2 °F - 35.6 °F 62% 29.94 in 10.0 mi South 19.6 mph 25.3 mph N/A   Clear
10:55 AM 48.2 °F - 33.8 °F 58% 29.95 in 10.0 mi SSW 17.3 mph 24.2 mph N/A   Clear
11:15 AM 50.0 °F - 35.6 °F 58% 29.94 in 10.0 mi SSW 15.0 mph 23.0 mph N/A   Clear
11:35 AM 51.8 °F - 35.6 °F 54% 29.93 in 10.0 mi SSW 19.6 mph - N/A   Clear
11:55 AM 51.8 °F - 37.4 °F 58% 29.93 in 10.0 mi SSW 16.1 mph - N/A   Clear
12:15 PM 51.8 °F - 35.6 °F 54% 29.93 in 10.0 mi SW 17.3 mph - N/A   Clear
12:35 PM 51.8 °F - 37.4 °F 58% 29.92 in 10.0 mi SSW 15.0 mph - N/A   Clear
12:55 PM 53.6 °F - 37.4 °F 54% 29.92 in 10.0 mi SW 12.7 mph - N/A   Clear
1:15 PM 53.6 °F - 37.4 °F 54% 29.92 in 10.0 mi WSW 12.7 mph 19.6 mph N/A   Clear
1:35 PM 53.6 °F - 37.4 °F 54% 29.91 in 10.0 mi SW 16.1 mph 20.7 mph N/A   Clear
1:55 PM 53.6 °F - 39.2 °F 58% 29.91 in 10.0 mi WSW 11.5 mph - N/A   Clear
2:15 PM 55.4 °F - 37.4 °F 51% 29.91 in 10.0 mi SSW 12.7 mph - N/A   Clear
2:35 PM 55.4 °F - 39.2 °F 54% 29.91 in 10.0 mi SSW 8.1 mph - N/A   Clear
2:55 PM 55.4 °F - 37.4 °F 51% 29.91 in 10.0 mi SW 8.1 mph - N/A   Clear
3:15 PM 55.4 °F - 37.4 °F 51% 29.92 in 10.0 mi SW 9.2 mph - N/A   Clear
3:35 PM 55.4 °F - 37.4 °F 51% 29.92 in 10.0 mi WSW 6.9 mph - N/A   Clear
3:55 PM 55.4 °F - 37.4 °F 51% 29.92 in 10.0 mi WSW 9.2 mph - N/A   Clear
4:15 PM 55.4 °F - 37.4 °F 51% 29.93 in 10.0 mi West 4.6 mph - N/A   Clear
4:35 PM 53.6 °F - 37.4 °F 54% 29.93 in 10.0 mi Calm Calm - N/A   Clear
4:55 PM 53.6 °F - 37.4 °F 54% 29.93 in 10.0 mi Calm Calm - N/A   Clear
5:15 PM 51.8 °F - 37.4 °F 58% 29.93 in 10.0 mi North - - N/A   Clear
5:35 PM 48.2 °F - 37.4 °F 66% 29.94 in 10.0 mi NE 3.5 mph - N/A   Clear
5:55 PM 50.0 °F - 35.6 °F 58% 29.95 in 10.0 mi NE 3.5 mph - N/A   Clear
6:15 PM 50.0 °F - 35.6 °F 58% 29.95 in 10.0 mi NE 4.6 mph - N/A   Clear
6:35 PM 46.4 °F 44.3 °F 35.6 °F 66% 29.95 in 10.0 mi East 4.6 mph - N/A   Clear
6:55 PM 48.2 °F - 35.6 °F 62% 29.96 in 10.0 mi ENE 6.9 mph - N/A   Clear
7:15 PM 48.2 °F - 37.4 °F 66% 29.96 in 10.0 mi ENE 5.8 mph - N/A   Clear
7:35 PM 48.2 °F - 37.4 °F 66% 29.95 in 10.0 mi ENE 5.8 mph - N/A   Clear
7:55 PM 41.0 °F 35.2 °F 32.0 °F 70% 29.96 in 10.0 mi North 9.2 mph - N/A   Clear
8:15 PM 42.8 °F 38.6 °F 35.6 °F 76% 29.96 in 10.0 mi NNE 6.9 mph - N/A   Clear
8:35 PM 41.0 °F 35.8 °F 35.6 °F 81% 29.96 in 10.0 mi NE 8.1 mph - N/A   Clear
8:55 PM 44.6 °F 40.7 °F 35.6 °F 71% 29.97 in 10.0 mi NE 6.9 mph - N/A   Clear
9:15 PM 44.6 °F 40.2 °F 35.6 °F 71% 29.97 in 10.0 mi ENE 8.1 mph - N/A   Clear
9:35 PM 42.8 °F 38.6 °F 35.6 °F 76% 29.97 in 10.0 mi ENE 6.9 mph - N/A   Clear
9:55 PM 44.6 °F 40.7 °F 35.6 °F 71% 29.97 in 10.0 mi NE 6.9 mph - N/A   Clear
10:15 PM 42.8 °F 38.6 °F 35.6 °F 76% 29.97 in 10.0 mi ENE 6.9 mph - N/A   Clear
10:35 PM 42.8 °F 37.5 °F 35.6 °F 76% 29.97 in 10.0 mi ENE 9.2 mph - N/A   Clear
10:55 PM 42.8 °F 37.5 °F 35.6 °F 76% 29.97 in 10.0 mi ENE 9.2 mph - N/A   Clear
11:15 PM 42.8 °F 38.0 °F 35.6 °F 76% 29.97 in 10.0 mi ENE 8.1 mph - N/A   Clear
11:35 PM 41.0 °F 35.8 °F 35.6 °F 81% 29.97 in 10.0 mi ENE 8.1 mph - N/A   Clear
11:55 PM 41.0 °F 35.8 °F 35.6 °F 81% 29.97 in 10.0 mi ENE 8.1 mph - N/A   Clear